Terminal Aerodrome Forecast
Issued by NWS

Home | Current Version | Previous Version | Text Only | Print | Product List | Glossary On
Versions: 1 2 3 4 5 6 7 8 9 10 11 12 13
053
FTUS46 KSTO 031147
TAFSCK
TAF
KSCK 031147Z 0312/0412 VRB05KT 4SM BR SKC
     FM031900 VRB05KT 5SM HZ SKC
     FM040600 VRB05KT 4SM BR SKC=

USA.gov is the U.S. government's official web portal to all federal, state and local government web resources and services.